Location: Buchlohh�user
(49.9750°N, 11.9917°E)
Time: 05:41:40
(UTC+00:00)

Daily predictions for brighter satellites

Satellite Brightness Start Highest point End
(mag) Time Altitude Azimuth Time Altitude Azimuth Time Altitude Azimuth
SJ 16-02 3.8 00:03:06 10° ESE 00:04:17 11° E 00:05:39 10° ENE
Landsat 4 4.1 00:01:06 10° N 00:04:39 56° WNW 00:04:39 56° WNW
SL-16 R/B 3.6 00:02:40 10° NNW 00:07:58 37° NE 00:13:12 10° ESE
Cosmos 1025 Rocket 2.8 00:07:37 10° N 00:11:55 82° E 00:12:12 76° SE
CZ-4 R/B 4.0 00:08:27 10° N 00:13:23 67° WNW 00:14:24 53° SW
Cosmos 1777 Rocket 4.5 00:12:23 42° SE 00:13:27 49° ESE 00:18:33 10° NNE
NOSS 0 Rocket 3.9 00:07:46 10° NW 00:14:00 70° WSW 00:15:55 45° S
CZ-2D R/B 3.3 00:09:31 10° NNE 00:14:30 34° E 00:16:30 26° SE
COSMOS 2428 3.2 00:11:04 10° NW 00:16:25 41° WSW 00:16:52 40° WSW
GEOS 3 Rocket 3.9 00:11:39 10° NE 00:16:58 55° SE 00:18:01 47° SSE
Meteor 1-29 3.3 00:13:42 10° NNE 00:16:43 61° NE 00:16:43 61° NE
ADEOS II 4.3 00:14:11 10° NE 00:17:21 16° E 00:20:29 10° SE
Cosmos 2360 Rocket 4.1 00:14:56 10° WNW 00:17:41 14° W 00:17:41 14° W
Lacrosse 4 Rocket 2.4 00:17:22 34° W 00:18:22 39° NW 00:22:20 10° NNE
Cosmos 1503 Rocket 4.4 00:21:17 41° WSW 00:22:52 57° WNW 00:28:11 10° NNE
Cosmos 2026 Rocket 4.0 00:20:59 10° N 00:27:05 73° ENE 00:29:55 34° SSE
Cosmos 1536 Rocket 3.3 00:23:22 10° N 00:27:45 87° W 00:28:12 71° S
KORONAS-FOTON 4.5 00:25:10 10° N 00:28:50 47° ENE 00:29:28 42° ESE
Cosmos 1627 Rocket 4.4 00:25:28 10° N 00:31:39 82° E 00:34:25 36° SSE
Cosmos 2297 Rocket 2.6 00:30:52 39° SSE 00:32:30 51° ESE 00:37:58 10° NE
Cosmos 1980 3.6 00:27:30 10° NNW 00:33:09 68° WSW 00:34:49 45° S
Cosmos 1634 Rocket 4.1 00:31:20 36° SSE 00:33:56 68° E 00:40:08 10° NNE
Cosmos 2219 3.4 00:32:41 44° S 00:34:17 61° ESE 00:39:49 10° NE
Cosmos 2333 Rocket 3.4 00:31:05 10° NW 00:35:41 25° WSW 00:35:43 25° WSW
MOZ.5/SAFIR/RUBIN 5/SL-8 3.7 00:38:18 53° S 00:39:26 81° WSW 00:44:13 10° NNW
ERBS 3.7 00:36:46 10° NW 00:38:34 30° NW 00:38:34 30° NW
Cosmos 1626 3.9 00:37:02 10° N 00:40:18 28° ENE 00:42:03 19° ESE
Cosmos 1766 4.4 00:41:49 31° ESE 00:42:40 35° E 00:46:14 10° NNE
Cosmos 2237 Rocket 2.2 00:37:21 10° NW 00:42:56 62° WSW 00:44:32 44° S
Cosmos 1437 4.4 00:42:29 10° NNW 00:43:59 24° NW 00:43:59 24° NW
Helios 1B rocket 3.5 00:49:07 10° N 00:52:47 32° WNW 00:53:28 30° W
Cosmos 1607 4.1 00:49:55 10° NW 00:56:24 82° NE 01:02:54 10° SE
Cosmos 1538 Rocket 4.1 00:53:44 10° NNW 00:58:46 53° WSW 00:59:58 43° SSW
CZ-4C R/B 2.8 01:00:00 77° SW 01:00:06 79° WSW 01:03:40 10° NNW
ATLAS 3B R/B 3.8 00:54:56 10° W 01:01:00 37° NNW 01:07:11 10° NE
SL-16 R/B 2.5 00:59:59 32° S 01:03:05 70° WSW 01:09:23 10° NNW
Okean 2 Rocket 4.0 01:02:15 33° W 01:03:09 36° WNW 01:07:20 10° N
COBE Rocket 4.2 01:00:26 22° SE 01:03:20 59° ENE 01:07:55 10° N
SAR-Lupe-3 4.5 00:59:52 10° NNE 01:03:28 77° ESE 01:03:55 64° SSE
USA 215 4.0 00:58:00 10° ENE 01:04:04 39° SE 01:06:48 27° S
Cosmos 1707 4.4 01:01:32 10° NW 01:04:13 22° W 01:04:13 22° W
Cosmos 1092 Rocket 4.4 01:04:33 10° NNW 01:10:26 44° W 01:12:41 32° SW
FALCON 9 DEB 3.2 01:08:42 13° WNW 01:11:48 76° NNE 01:15:17 10° ESE
Resurs 1-4 Rocket 2.0 01:06:51 10° NNE 01:12:10 86° WNW 01:14:25 36° SSW
Cosmos 1805 3.1 01:13:32 54° SSW 01:14:22 86° WNW 01:18:16 10° N
Okean 1-7 Rocket 4.4 01:10:48 10° N 01:15:05 47° ENE 01:18:34 15° SSE
Cosmos 2266 Rocket 4.5 01:10:56 10° N 01:17:16 60° ENE 01:23:27 10° SSE
SL-14 R/B 3.5 01:13:38 10° N 01:17:35 66° E 01:19:23 30° SSE
BREEZE-M R/B 4.5 01:19:05 16° E 01:19:05 16° E 01:19:44 10° E
Okean 1 Rocket 3.0 01:18:56 43° SW 01:20:11 67° WNW 01:24:33 10° N
Uosat 12 SS-18 rocket 4.2 01:18:27 37° SW 01:20:21 82° NW 01:24:49 10° NE
Meteor 1-15 Rocket 4.3 01:17:58 34° SSW 01:20:28 69° WNW 01:26:05 10° N
Cosmos 1674 3.1 01:17:59 10° NNW 01:21:30 40° W 01:21:38 40° W
Cosmos 2227 Rocket 2.2 01:19:04 34° SSW 01:21:40 85° WNW 01:27:23 10° NNE
Cosmos 1655 Rocket 4.0 01:16:40 10° N 01:22:59 82° E 01:28:01 17° SSE
Cosmos 2112 Rocket 4.0 01:18:58 10° NNW 01:24:15 81° ENE 01:29:27 10° SSE
AQUA 3.8 01:21:46 10° NNE 01:26:35 89° E 01:28:45 33° SSW
Cosmos 1733 3.1 01:27:32 45° SSW 01:28:38 84° W 01:32:29 10° N
UNK 4.3 01:27:34 35° SW 01:28:43 41° W 01:33:09 10° NNW
CBERS-1 4.2 01:26:06 10° NNE 01:31:13 67° ESE 01:34:16 24° S
NOSS 3-1 (C) 4.2 01:33:35 21° S 01:36:46 40° ESE 01:42:35 10° NE
USA 267 3.3 01:31:29 10° ESE 01:38:02 81° NNE 01:44:36 10° WNW
ARIANE 5 R/B 3.7 01:33:13 10° NNE 01:38:08 39° E 01:42:41 12° SSE
Cosmos 1898 Rocket 4.0 01:35:45 22° S 01:38:59 54° ESE 01:44:04 10° NNE
Meteor 2-19 Rocket 4.4 01:33:49 10° NNW 01:39:59 75° W 01:44:42 18° S
Cosmos 1680 Rocket 3.4 01:36:30 10° NNW 01:41:42 66° WSW 01:45:53 16° S
SJ 16-02 1.3 01:40:06 32° SSW 01:42:07 89° ESE 01:46:34 10° NNE
Cosmos 2082 3.7 01:39:45 27° SSW 01:42:55 85° ESE 01:48:35 10° NNE
Cosmos 1726 4.1 01:42:03 10° SE 01:45:07 25° E 01:48:10 10° NE
Cosmos 990 Rocket 4.2 01:44:13 23° S 01:47:26 67° ESE 01:52:36 10° NNE
IDEFIX/ARIANE 42P 4.0 01:42:48 10° NNE 01:47:28 32° E 01:52:06 10° SSE
Cosmos 1340 Rocket 3.4 01:48:30 19° SSE 01:51:06 54° E 01:54:59 10° NNE
SL-16 R/B 2.4 01:46:47 10° NW 01:52:15 48° WSW 01:56:46 15° S
Cosmos 1626 Rocket 4.3 01:48:34 10° N 01:52:49 53° ENE 01:57:02 10° SSE
Cosmos 1455 Rocket 3.1 01:51:23 23° S 01:54:06 85° E 01:58:34 10° N
SL-4 R/B 2.1 01:54:33 34° SSW 01:54:33 34° SSW 01:57:18 10° SE
CZ-2D R/B 2.8 01:49:29 10° N 01:54:39 43° WNW 01:57:49 22° SW
SL-08 R/B 3.4 01:50:01 10° SSE 01:54:58 87° ENE 01:59:58 10° NNW
Cosmos 1461 3.3 01:52:47 26° SSW 01:55:04 62° SE 01:59:36 10° NE
IRS-1D 3.5 01:50:10 10° NNE 01:55:13 77° WNW 01:58:30 23° SSW
Meteor 1-24 Rocket 3.8 01:50:01 10° NNW 01:55:20 52° W 01:58:47 21° SSW
NPP 4.1 01:50:57 10° N 01:56:07 48° WNW 01:59:16 23° SW
ADEOS II 2.1 01:52:27 10° NNE 01:57:45 85° WNW 02:01:25 20° SSW
Lacrosse 4 Rocket 4.1 01:56:56 10° NW 01:58:10 11° NNW 01:59:24 10° N
Cosmos 1953 3.8 01:55:20 10° SSE 01:58:58 34° E 02:02:40 10° NNE
Cosmos 1892 Rocket 3.9 01:56:12 10° NNW 02:00:31 49° W 02:03:00 23° SSW
CZ-4B R/B 3.5 01:56:17 10° N 02:01:00 60° WNW 02:03:51 23° SW
Meteor 2-5 Rocket 4.4 01:57:54 10° NNW 02:03:01 36° W 02:05:59 21° SW
USA 229 DEB 4.0 02:05:21 17° SSW 02:10:21 60° SE 02:17:07 10° NE
USA 229 4.0 02:05:27 17° SSW 02:10:26 59° SE 02:17:11 10° NE
IRS-1C 4.1 02:06:41 10° NNE 02:12:04 89° WNW 02:16:32 15° SSW
Cosmos 2263 Rocket 3.2 02:08:02 10° S 02:13:13 41° ESE 02:18:24 10° NE
Cosmos 1626 3.4 02:12:24 10° NW 02:15:28 25° W 02:16:34 21° WSW
Cosmos 2297 Rocket 3.2 02:12:41 15° WSW 02:16:46 34° NW 02:21:56 10° NNE
Cosmos 2219 4.5 02:14:36 13° WSW 02:18:50 30° NW 02:23:46 10° NNE
Cosmos 2098 Rocket 3.8 02:14:57 10° NNW 02:19:32 49° W 02:25:10 10° SSW
NOSS 3-1 (A) 3.9 02:16:55 14° SSW 02:21:33 50° ESE 02:27:41 10° NE
Meteor 1-28 Rocket 3.4 02:20:46 14° S 02:23:55 51° W 02:27:39 10° NNW
Cosmos 2237 Rocket 4.1 02:25:37 10° W 02:25:48 10° W 02:25:59 10° W
H-2A R/B 2.2 02:26:42 10° SSE 02:30:48 72° ENE 02:34:54 10° N
Cosmos 1603 3.7 02:26:17 10° NNW 02:32:03 78° WSW 02:37:45 10° SSE
Timation 1 Rocket 4.4 02:26:51 14° SSW 02:32:08 83° ESE 02:38:08 10° NNE
Cosmos 1470 3.4 02:32:06 17° SW 02:34:50 42° WNW 02:38:39 10° N
SeaSat 1 3.7 02:33:47 10° NE 02:38:22 36° ESE 02:42:54 10° S
Cosmos 1544 Rocket 4.0 02:37:11 14° SSW 02:40:50 47° WNW 02:45:12 10° N
Spot 4 Rocket 4.1 02:38:41 10° NNE 02:43:54 86° WNW 02:49:03 10° SSW
USA 215 3.3 02:40:55 10° ENE 02:47:30 84° NNW 02:54:02 10° WSW
SL-16 R/B 4.3 02:45:05 10° WSW 02:47:50 13° W 02:50:44 10° NW
FALCON 9 DEB 4.0 02:45:34 10° W 02:48:37 28° SW 02:51:38 10° SSE
Resurs 1-4 Rocket 4.0 02:47:58 10° NNW 02:51:15 17° NW 02:54:33 10° W
Cosmos 1048 Rocket 4.2 02:47:29 10° NNW 02:52:39 79° ENE 02:57:49 10° SSE
Cosmos 1553 Rocket 4.2 02:49:29 10° S 02:55:31 72° E 03:01:37 10° NNE
Cosmos 1602 Rocket 3.9 02:53:54 10° NNW 02:58:05 45° W 03:02:13 10° SSW
Cosmos 1943 3.2 02:52:38 10° NW 02:58:09 60° WSW 03:03:39 10° S
Cosmos 1745 Rocket 4.3 02:56:37 10° N 03:02:58 76° E 03:09:12 10° SSE
Cosmos 1606 Rocket 4.3 02:58:57 10° S 03:03:19 57° E 03:07:44 10° NNE
Cosmos 2227 Rocket 3.9 03:02:16 10° W 03:06:36 22° NW 03:10:55 10° N
MSX 3.9 03:08:58 10° NNE 03:14:44 76° WNW 03:20:29 10° SSW
Cosmos 1937 Rocket 4.3 03:10:10 10° SW 03:15:09 40° WNW 03:20:10 10° NNE
ERS-2 2.4 03:11:55 10° S 03:15:25 45° W 03:18:57 10° NNW
CZ-2C R/B 3.0 03:12:05 10° N 03:15:55 54° WNW 03:19:37 10° SSW
